Location: Colonia Mina de C?rbuni
(46.1667°N, 22.7167°E)
Time: 05:53:40
(UTC+00:00)

Tiros 1 - Pass Details

Date: 25 April 2024
Orbit: 624 x 657 km, 48.4° (Epoch: 25 May)

Event Time Altitude Azimuth Distance (km) Brightness Sun altitude
Exits shadow 23:19:23 24° 77° (ENE) 1,308 8.9 -29.1°
Drops below altitude 10° 23:21:16 10° 83° (E) 2,002 9.9 -29.0°
Sets 23:23:35 0° 86° (E) 2,906 10.7 -28.9°
